Regional Weather Roundup
Issued by NWS Wakefield, VA

Home | Current Version | Previous Version | Graphics & Text | Print | Product List | Glossary On
Versions: 1 2 3 4 5 6 7 8 9 10 11 12 13 14 15 16 17 18 19 20 21 22 23 24 25 26 27 28 29 30 31 32 33 34 35 36 37 38 39 40 41 42 43 44 45 46 47 48 49 50
362
ASUS41 KAKQ 221315
RWRAKQ

REGIONAL WEATHER ROUNDUP
NATIONAL WEATHER SERVICE WAKEFIELD VA
900 AM EDT FRI SEP 22 2017

Note: "fair" indicates few or no clouds below 12,000 feet with no
significant weather and/or obstructions to visibility. * = Denotes
station may not report precipitation (e.g., rain,snow,etc.),
thunder or fog.

VAZ042-051-052>054-056-221400-
NORTHERN VIRGINIA

CITY           SKY/WX    TMP DP  RH WIND       PRES   REMARKS
WASH NATIONAL  CLOUDY    73  66  78 N6        30.09R
DULLES         PTSUNNY   69  64  84 NW8       30.09R
FORT BELVOIR   PTSUNNY   72  64  78 NW3       30.08R
QUANTICO       CLOUDY    72  66  81 NW6       30.09R
FREDERICKSBRG* PTSUNNY   71  65  83 CALM      30.08R
STAFFORD*      MOSUNNY   69  67  93 NW6       30.13R
WARRENTON      CLOUDY    68  63  84 CALM      30.10R
CULPEPER*      CLOUDY    68  65  89 CALM      30.11R
MANASSAS*      MOSUNNY   69  66  90 CALM      30.09R
LEESBURG*      CLOUDY    70  66  88 N3        30.10S
WINCHESTER     MOSUNNY   66  61  82 CALM      30.11S
FRONT ROYAL*   CLOUDY    64  61  88 CALM      30.11S
LURAY*         MOSUNNY   63  61  94 CALM      30.14R
$$

VAZ048-049-060>072-079>083-221400-
CENTRAL AND SOUTH CENTRAL VIRGINIA

CITY           SKY/WX    TMP DP  RH WIND       PRES   REMARKS
RICHMOND       CLOUDY    72  65  78 NW6       30.08R
CHESTERFIELD*  NOT AVBL
PETERSBURG*    CLOUDY    69  66  89 CALM      30.09R
HANOVER        PTSUNNY   71  65  81 NW3       30.09R
TAPPAHANNOCK*  PTSUNNY   71  66  85 NW3       30.08R
QUINTON*       FAIR      69  67  94 CALM      30.08R
CHARLOTTSVILLE CLOUDY    68  64  87 CALM      30.10R
GORDONSVILLE*  MOSUNNY   68  65  92 CALM      30.09R
ORANGE*        MOSUNNY   68  64  88 CALM      30.10R
LOUISA*        MOSUNNY   68  63  83 N3        30.10R
BUMPASS*       FAIR      68  68 100 NW6       30.09S
FARMVILLE*     CLOUDY    67  67 100 CALM      30.08S
CREWE*         FAIR      66  66 100 CALM      30.09S
FORT PICKETT*  FAIR      68  68 100 W7        30.09S
CHASE CITY*    FAIR      73  73  97 CALM      30.10S
CLARKSVILLE*   FAIR      70  68  94 CALM      30.09S
SOUTH HILL*    SUNNY     74  71  91 CALM      30.14S
LAWRENCEVILLE* FAIR      70  68  95 CALM      30.08S
EMPORIA*       MOSUNNY   70  68  94 CALM      30.09S
$$

VAZ088>098-221400-
SOUTHEAST VIRGINIA

CITY           SKY/WX    TMP DP  RH WIND       PRES   REMARKS
NORFOLK        MOSUNNY   75  69  81 VRB7      30.06R
VIRGINIA BEACH MOSUNNY   71  66  84 W5        30.04S
NORFOLK NAVAL  MOSUNNY   74  68  81 W8        30.07R
WEST POINT*    CLOUDY    73  66  78 W6        30.08S
SALUDA*        FAIR      72  68  88 NW3       30.06R
NEWPORT NEWS   PTSUNNY   75  69  81 W7        30.06R
LANGLEY AFB    MOSUNNY   74  70  86 W9        30.05S
FORT EUSTIS    PTSUNNY   74  69  86 W7        30.04R
WILLIAMSBURG*  CLOUDY    73  70  88 W6        30.07S
HR EXEC AP*    FAIR      71  69  93 W5        30.07R
FRANKLIN*      SUNNY     71  68  90 NW5       30.08R
US460-WAKEFLD  MOSUNNY   71  69  93 CALM      30.08R
$$

VAZ020-022-025-037-045-221400-
WEST CENTRAL AND SOUTHWEST VIRGINIA

CITY           SKY/WX    TMP DP  RH WIND       PRES   REMARKS
STAUNTON*      MOSUNNY   60  59  98 CALM      30.17R
WAYNESBORO*    MOSUNNY   62  62 100 S6        30.15S
HOT SPRINGS VA MOSUNNY   65  57  74 NW6       30.26S
LYNCHBURG      PTSUNNY   68  65  90 CALM      30.12R
DANVILLE       MOSUNNY   69  68  96 CALM      30.11S
SOUTH BOSTON*  FAIR      68  66  94 CALM      30.10S
MARTINSVILLE   MOSUNNY   65  64  94 CALM      30.16R
ROANOKE        MOSUNNY   69  65  86 CALM      30.16S
BLACKSBURG     FOG       66  66 100 CALM      30.22R VSB 1
DUBLIN*        PTSUNNY   67  67 100 CALM      30.20S FOG
MARION*        PTSUNNY   66  62  88 CALM      30.23S
HILLSVILLE*    MOSUNNY   62  58  87 CALM      30.21R
RICHLANDS*     FAIR      67  63  87 CALM      30.21S
WISE*          SUNNY     70  68  94 CALM      30.22R
ABINGDON*      MOSUNNY   69  67  93 E3        30.18R
$$

MDZ021>025-VAZ099-100-221400-
SOUTHERN MARYLAND AND THE DELMARVA PENINSULA

CITY           SKY/WX    TMP DP  RH WIND       PRES   REMARKS
PATUXENT RIVER CLOUDY    72  68  87 N5        30.06R
BAY BRIDGE APT CLOUDY    73  64  73 N5        30.06S
LEONARDTOWN    CLOUDY    70  66  88 CALM      30.09R
DOVER          MOSUNNY   70  61  73 NW8       30.03S
GEORGETOWN     CLOUDY    72  63  73 N3        30.05R
EASTON         PTSUNNY   72  64  78 NE6       30.10R
CAMBRIDGE      SUNNY     72  66  83 N5        30.06R
SALISBURY      CLOUDY    70  67  90 N6        30.05R
OCEAN CITY     PTSUNNY   70  68  93 N6        30.04R
WALLOPS ISLAND CLOUDY    72  70  93 N7        30.04R
ACCOMACK*      CLOUDY    74  71  91 NW7       30.04R
$$

NCZ012>017-030>032-221400-
NORTH CENTRAL AND EASTERN NORTH CAROLINA

CITY           SKY/WX    TMP DP  RH WIND       PRES   REMARKS
ROANOKE RAPIDS FAIR      68  68 100 CALM      30.08S
RALEIGH        MOSUNNY   72  67  84 CALM      30.10S
ELIZABETH CITY SUNNY     73  70  90 W6        30.06S
AHOSKIE*       SUNNY     69  68  96 CALM      30.07S
EDENTON*       SUNNY     76  70  82 CALM      30.07R
CURRITUCK*     SUNNY     71  67  87 W6        30.07R
KILL DEVIL HLS SUNNY     72  67  82 CALM      30.05R
MANTEO         SUNNY     73  67  80 NW5       30.07R
CAPE HATTERAS  SUNNY     79  71  76 VRB3      30.06R
TARBORO*       NOT AVBL
GOLDSBORO      SUNNY     70  70 100 CALM      30.06S
WASHINGTON     SUNNY     73  70  91 CALM      30.08R
GREENVILLE     SUNNY     70  70 100 CALM      30.09R
NEW BERN       SUNNY     74  71  91 CALM      30.08S FOG
WILMINGTON     SUNNY     74  69  85 N6        30.06S
$$

VAZ048-221400-
ELSEWHERE

CITY           SKY/WX    TMP DP  RH WIND       PRES   REMARKS
HARRISBURG PA  PTSUNNY   70  66  87 NW7       30.08R
BALTIMORE      PTSUNNY   72  65  78 VRB3      30.07R
ANNAPOLIS      CLOUDY    76  69  79 N5        30.06R
ANDREWS AFB    CLOUDY    71  64  79 N5        30.07R
PHILADELPHIA   PTSUNNY   72  54  53 N14       30.05S
HENDERSON NC   SUNNY     67  64  89 CALM      30.10R
GREENSBORO     PTSUNNY   74  69  85 NE6       30.11S
ROCKY MOUNT    FOG       68  68 100 CALM      30.08S VSB<1/4
$$

VAZ100-221400-
MARINE

STATION/POSITION TIME  TEMP    WIND        PRES    WAVE   SWELL
                       AIR SEA DIR/SP/G            HT/PER HT/PER
                 (UTC) (F)     (DEG/KT/KT) (MB)    (FT/S) (FT/S)
BRANDYWINE LGT   1242   73      20/ 19/ 22 1017.1F
CAPE MAY NJ      1248   71 74   10/  8/ 12 1016.3S
LEWES DE         1242   74 74   10/ 15/ 17 1016.6F
15NM E FENWICK I 1150   72 71  340/ 12/ 16 1016.4    7/ 9   7/ 9
OCEAN-CITY-INLET 1242   72 74   10/  9/ 11 1017.2R
WACHAPREAGUE VA  1242   74 75  280/  2/  8 1017.0R
THOMAS POINT MD  1300   74 76   20/  8/ 10   N/A
GOOSES REEF MD   1250   74      20/ 10/ 10 1018.4R
COVE POINT MD    1242   74      30/  9/ 12 1018.5R
SOLOMONS ISLAND  1242   71 76  340/  5/  7 1017.6R
BISHOPS HEAD MD  1242   72 76   20/  6/  8 1017.7R
PINEY POINT MD   1248          330/  5/  5   N/A
POTOMAC MD       1250   73     330/  6/  8 1017.1R
CAMBRIDGE MD     1242   72 76              1018.6R
LEWISETTA VA     1242   72 77  350/  3/  5 1017.7R
RAPPAHANNOCK LGT 1248          310/ 13/ 15 1018.0R
STINGRAY PT      1250   74     340/ 10/ 14 1017.8R
YORK RVR RNG VA  1242   74     280/ 12/ 12 1017.9R
YORKTOWN VA      1242   74 76  270/  9/ 12 1017.4R
JAMESTOWN VA     1250          310/  6/  8   N/A
DOMINION TERM VA 1242   72     300/ 11/ 12 1018.1R
KIPTOPEKE VA     1248      76  280/ 12/ 14   N/A
CHES BAY BRIDGE  1242   73 75  280/ 14/ 16 1017.5R
CAPE HENRY VA    1242   73     270/  9/ 13   N/A
WILLOUBY STN VA  1242   73     290/ 11/ 13 1017.9R
S CRANEY ISL VA  1242   72     270/  5/  8 1017.8R
CAPE HENRY BUOY  1230      74                N/A     4/13   3/13
1ST LANDING BUOY 1250   74                 1017.5R
64NM E OF VA BCH 1250   71 69  280/ 10/ 14 1017.4S   8/11   8/11
DUCK PIER NC     1242   72 75  280/  6/  8 1017.5R
44100 DUCK FRF   1235      74                N/A     6/13   5/13
44056 DUCK FRF   1300      75                N/A     5/11   3/11
OREGON INLET NC  1242   75 77  270/  5/  6 1017.7R
HATTERAS NC      1242   76 78   10/  3/  4 1017.8R
DIAMOND SHLS NC  1250   75 76  340/  6/  6 1017.6R   5/11   5/11
CAPE LOOKOUT NC  1200   77      80/  5/  6 1017.3R
$$




USA.gov is the U.S. government's official web portal to all federal, state and local government web resources and services.